Home   Weather   Annapolis   Past weeks
Flag for USA

Past Weather in Annapolis, Maryland, USA — Yesterday and Last 2 Weeks

Now
47 °F

Sunny.


Feels Like: 43 °F
Forecast: 49 / 36 °F
Wind: 8 mph from North

Location: Annapolis - United States Naval Academy

Current Time: Mar 26, 2019 at 2:35:06 pm

Latest Report: Mar 26, 2019 at 1:54 pm


Visibility: 10 mi

Pressure: 30.30 "Hg

Humidity: 29%

Dew Point: 16 °F

Location of AnnapolisLocation

Past Weather in Annapolis — Graph

°F

Annapolis Temperature Yesterday

Maximum temperature yesterday: 60 °F (at 11:54 am)
Minimum temperature yesterday: 46 °F (at 11:54 pm)
Average temperature yesterday: 52 °F

High & Low Weather Summary for the Past Weeks

 TemperatureHumidityPressure
High80 °F (Mar 15, 3:54 pm)96% (Mar 21, 7:34 pm)30.49 "Hg (Mar 21, 7:34 pm)
Low35 °F (Mar 13, 3:54 am)15% (Mar 11, 5:54 pm)29.45 "Hg (Mar 22, 12:54 am)
Average49 °F56%30.10 "Hg
* Reported Mar 11 12:54 pm — Mar 26 12:54 pm, Annapolis. Weather by CustomWeather, © 2019

Note: Actual official high and low records may vary slightly from our data, if they occured in-between our weather recording intervals... More about our weather records

Advertising

Annapolis Weather History for the Previous 24 Hours

Scroll right to see more
 ConditionsComfort  
Time TempWeatherWind HumidityBarometerVisibility
12:54 pm
Tue, Mar 26
44 °FSunny.8 mph29%30.32 "Hg10 mi
11:54 am43 °FQuite cool.13 mph34%30.32 "Hg10 mi
10:54 am42 °FSunny.16 mph32%30.32 "Hg10 mi
9:54 am42 °FSunny.15 mph35%30.29 "Hg10 mi
8:54 am41 °FSunny.14 mph35%30.27 "Hg10 mi
7:54 am41 °FSunny.14 mph36%30.23 "Hg10 mi
6:54 am41 °FClear.17 mph38%30.19 "Hg10 mi
5:54 am43 °FPassing clouds.10 mph42%30.16 "Hg10 mi
4:54 am46 °FOvercast.15 mph54%30.12 "Hg10 mi
3:54 am46 °FOvercast.9 mph61%30.11 "Hg10 mi
2:54 am46 °FOvercast.8 mph71%30.10 "Hg10 mi
1:54 am46 °FMostly cloudy.9 mph73%30.09 "Hg10 mi
1:13 am46 °FOvercast.10 mph71%30.09 "Hg10 mi
12:54 am46 °FMostly cloudy.13 mph71%30.10 "Hg10 mi
11:54 pm
Mon, Mar 25
46 °FOvercast.12 mph73%30.09 "Hg9 mi
10:54 pm47 °FOvercast.12 mph74%30.09 "Hg8 mi
10:37 pm47 °FOvercast.8 mph74%30.08 "Hg9 mi
9:54 pm47 °FOvercast.12 mph77%30.08 "Hg8 mi
9:32 pm48 °FMostly cloudy.8 mph74%30.07 "Hg8 mi
9:19 pm48 °FMostly cloudy.9 mph74%30.07 "Hg8 mi
8:54 pm48 °FOvercast.10 mph74%30.07 "Hg9 mi
7:54 pm48 °FOvercast.14 mph74%30.04 "Hg10 mi
6:54 pm50 °FOvercast.12 mph68%30.03 "Hg10 mi
5:54 pm52 °FMostly cloudy.16 mph64%30.01 "Hg10 mi
4:54 pm55 °FOvercast.14 mph59%30.00 "Hg10 mi
3:54 pm57 °FOvercast.13 mph49%30.01 "Hg10 mi
2:54 pm60 °FSunny.8 mph41%30.00 "Hg10 mi
Weather by CustomWeather, © 2019

See weather overview